Helicity
88 163 153 65 45 59 79 91 88 75 33 45 64 82 101 121 174 211 229 251 257 260 254 223 113 149 196 200 225 197 152 216 98 45 136 141 175 200 200 132 156 163 121 134
106 140 53 32 38 57 66 67 92 96 73 69 42 35 60 125 149 169 201 218 244 263 257 228 223 191 188 194 196 227 241 228 168 111 77 115 93 133 190 220 145 174 122 96
120 78 48 65 62 54 67 46 61 96 82 91 59 20 8 39 104 147 152 158 186 211 247 256 231 214 186 192 209 211 218 260 246 240 168 88 149 127 101 120 135 123 188 163
96 60 81 94 72 27 56 37 42 58 102 121 63 44 -9 7 36 94 132 142 146 156 165 168 191 204 191 187 171 192 193 193 217 244 227 203 110 125 94 109 139 138 121 160
86 76 81 99 73 19 44 24 43 62 90 102 85 25 39 27 18 77 86 84 80 81 97 122 126 140 150 145 159 167 182 179 178 205 219 199 176 97 103 142 96 117 132 31
79 65 74 82 53 40 15 35 66 57 60 63 84 60 44 52 48 62 64 46 42 45 53 67 77 85 103 132 140 144 177 201 201 193 188 186 171 181 116 122 122 156 154 132
58 82 69 71 90 69 25 30 53 67 78 78 48 45 34 69 43 28 27 20 7 -7 3 34 62 101 121 131 148 136 135 169 213 231 235 206 167 135 130 98 118 128 123 135
55 89 82 62 98 88 49 5 30 40 59 65 60 29 19 63 43 17 -2 -1 2 6 -2 10 54 80 111 130 139 140 146 134 153 201 240 245 218 161 123 106 95 106 110 111
60 72 69 73 75 67 87 62 19 21 53 51 48 49 51 45 9 11 6 -0 12 18 17 21 33 50 102 124 118 115 144 159 185 200 211 221 213 191 160 144 142 100 90 96
84 52 92 85 79 76 76 71 44 32 16 23 55 48 34 36 -5 -43 -36 -11 2 16 30 51 75 84 89 92 106 120 138 155 172 185 188 196 201 170 135 92 81 117 93 108
72 69 102 95 113 91 89 80 72 64 -6 24 32 41 50 40 2 -17 -30 -22 -2 11 22 61 91 88 76 87 119 134 139 143 166 184 183 182 190 207 181 101 70 61 87 101
68 76 81 116 94 67 73 67 79 67 68 18 22 40 71 34 23 15 11 15 14 11 2 8 47 90 82 99 131 119 92 108 113 145 174 178 181 214 248 241 206 173 185 227
73 83 70 111 105 98 93 111 104 113 102 70 22 20 55 42 36 30 51 59 56 63 -0 -17 -0 72 95 90 105 105 110 100 79 78 80 115 159 203 284 323 315 291 304 285
98 85 94 109 150 171 176 158 152 152 86 94 93 9 18 60 16 2 49 86 83 74 51 53 61 123 86 85 81 77 80 69 67 51 41 76 120 191 264 344 429 346 249 242
71 81 119 105 131 183 179 174 192 197 147 103 73 31 8 52 77 35 61 86 74 71 51 16 31 56 25 -20 50 49 50 41 24 20 34 52 59 107 211 313 350 372 328 295
84 77 90 100 87 136 121 146 167 145 95 84 92 92 -25 -70 -16 20 67 106 74 78 64 -0 -26 -38 -62 -81 -49 27 35 5 -15 31 40 24 43 99 107 213 274 286 269 290
93 76 56 69 74 62 71 104 202 152 138 142 102 51 -42 -53 -44 4 63 99 83 53 -11 11 -24 -46 -53 -84 -43 -26 15 -7 -8 12 42 78 98 117 115 101 183 234 273 176
127 98 62 65 43 64 90 92 123 185 133 215 96 35 -15 -39 -33 13 73 90 81 68 57 38 26 -7 -9 -22 -57 -52 -41 -19 -18 1 4 -7 -8 73 108 182 182 139 137 81
111 86 54 39 74 51 61 80 101 139 73 191 189 50 -13 8 -24 -32 89 98 62 46 45 36 24 14 3 -9 -29 -38 -39 -46 -45 -57 -42 -61 -45 -7 -10 41 106 56 22 29
103 89 83 75 66 54 62 76 65 74 57 50 106 36 45 84 35 6 27 72 80 49 49 49 28 18 7 31 48 25 -10 -45 -26 -44 -50 -62 -32 -56 -39 -20 2 37 39 27
104 94 94 111 54 13 61 102 89 78 62 32 51 54 119 104 61 30 65 55 66 75 68 53 45 40 47 40 53 39 49 49 23 40 21 -64 -53 -47 -45 6 41 45 33 37
92 94 68 86 51 17 82 135 59 48 57 53 38 80 122 97 71 50 49 73 86 83 75 69 59 46 39 37 45 48 51 40 48 39 49 55 54 49 54 55 57 58 48 11
108 116 71 61 53 61 37 46 41 41 39 58 59 57 86 129 134 113 80 68 58 59 58 50 53 39 37 39 41 45 44 35 32 16 13 15 19 4 9 -13 1 21 16 4
121 147 118 95 59 97 117 32 35 71 65 60 50 47 98 114 141 156 119 95 82 63 63 52 53 46 38 46 30 22 22 17 14 12 17 18 7 -7 -12 -17 -20 -18 -21 -21
147 192 154 100 14 46 61 65 43 78 135 77 59 58 62 84 85 131 125 114 96 81 64 62 61 46 40 38 31 16 7 -1 -17 -20 -18 -14 -15 -17 -22 -22 -17 -9 3 -2
273 315 327 180 130 99 66 31 47 94 118 133 138 97 65 89 83 94 94 108 113 98 90 80 56 31 32 38 19 8 -6 -13 -33 -39 -37 -40 -38 -36 -28 -11 2 2 8 19
Wind_Speed
59 64 66 59 49 43 40 38 38 33 38 38 36 31 31 31 30 34 37 40 43 46 47 47 47 49 49 47 48 50 52 50 54 58 51 63 47 55 57 52 48 43 43 46
53 66 52 41 45 43 43 39 38 28 37 30 30 30 28 30 30 32 37 40 44 47 48 48 52 54 53 53 52 53 55 56 57 57 58 53 50 53 57 52 52 53 49 50
60 52 46 45 51 42 40 43 36 27 26 26 23 31 32 31 32 33 35 38 42 47 52 55 56 57 58 59 61 60 59 59 57 55 60 57 49 40 44 45 52 53 52 55
53 48 51 49 49 43 38 40 34 29 26 27 21 30 34 35 33 35 38 41 43 47 51 54 58 60 61 62 62 63 62 60 58 58 56 51 47 53 43 30 40 46 53 51
49 50 51 52 47 40 37 32 35 34 30 28 24 19 32 34 37 40 42 44 46 48 51 55 57 59 60 61 63 63 64 62 60 58 57 57 58 54 44 37 42 24 24 29
47 43 45 45 40 38 36 31 33 36 33 31 30 25 24 25 39 44 46 47 49 51 54 56 58 59 60 61 62 62 63 65 63 61 60 59 59 57 50 42 41 42 35 27
46 47 43 46 46 40 49 39 36 36 35 35 27 22 25 23 35 42 46 47 49 51 54 57 59 61 62 63 63 63 64 66 65 66 66 64 63 60 58 47 41 39 36 36
54 51 51 47 51 45 48 44 40 36 37 28 26 24 25 25 31 42 44 46 50 53 55 57 59 60 62 62 62 63 64 66 66 66 67 66 66 63 61 58 53 45 41 40
51 46 42 44 45 46 47 49 33 31 33 28 29 24 24 21 18 45 46 49 52 54 57 58 58 58 60 61 61 62 63 63 63 65 65 65 64 64 66 64 61 53 47 45
44 46 43 42 41 45 46 40 40 34 33 36 30 23 23 28 18 25 38 45 48 51 55 57 57 57 57 57 57 57 58 60 61 61 61 62 63 62 63 63 60 57 49 42
43 42 45 42 49 47 45 45 39 32 37 37 31 36 30 27 15 23 27 34 41 45 47 52 53 54 54 54 54 55 55 54 56 56 56 56 56 58 61 54 53 50 42 42
40 39 45 45 38 37 37 38 36 36 29 38 37 22 28 21 14 17 21 30 38 42 47 49 53 51 52 52 52 52 51 50 50 50 49 48 47 46 45 43 44 40 33 33
35 39 46 45 42 37 35 34 31 31 27 24 38 39 25 16 16 22 23 19 13 11 42 42 51 49 49 49 49 48 47 46 47 45 42 41 40 37 35 34 32 28 25 25
34 34 35 39 38 36 31 29 24 24 27 24 18 38 21 13 23 24 24 20 17 18 23 34 31 10 32 39 43 44 45 45 45 43 42 41 39 36 33 31 29 26 24 22
30 33 31 21 21 23 17 17 17 13 13 19 26 44 50 8 25 22 25 23 17 16 18 40 43 48 57 60 50 48 47 47 45 44 45 44 41 37 34 30 26 25 25 25
27 31 35 32 35 32 21 15 14 9 4 3 7 34 42 33 23 23 24 24 21 28 20 39 51 51 55 57 54 49 47 47 45 46 47 46 43 39 37 33 24 22 22 24
25 27 36 32 35 30 31 28 22 23 20 13 16 17 24 29 25 22 23 23 20 29 41 39 45 49 52 54 57 57 50 44 47 47 48 49 41 42 34 35 29 23 21 21
24 28 29 28 35 38 36 31 30 17 16 14 13 18 17 24 27 18 19 20 20 26 30 33 38 43 47 51 56 53 50 46 45 48 50 38 46 43 42 29 27 13 12 19
24 24 29 29 32 24 33 30 29 31 25 18 20 26 24 16 33 27 11 14 19 25 29 31 35 39 42 46 50 50 47 42 45 49 41 39 38 53 40 30 7 7 10 19
24 24 23 27 32 33 32 32 29 33 30 29 27 27 28 25 17 26 25 14 15 22 25 28 31 35 39 37 39 47 46 38 39 32 43 53 56 56 30 20 19 3 11 3
22 23 13 13 21 17 13 28 32 35 32 30 28 28 30 25 22 23 22 21 20 22 23 25 28 30 32 32 32 36 38 45 10 20 52 50 41 42 43 13 9 18 7 7
19 17 22 22 18 26 19 26 26 28 28 27 24 25 26 25 26 27 29 30 27 27 32 35 34 33 32 32 33 35 38 35 34 34 37 39 41 43 39 36 35 26 21 3
37 19 29 7 15 25 10 21 11 25 21 21 21 21 25 27 28 29 32 37 40 41 40 39 37 37 37 37 37 38 40 41 42 45 47 46 44 47 46 52 49 8 11 14
37 28 32 36 27 9 10 18 5 10 9 9 13 16 23 27 30 32 33 36 38 40 39 39 40 39 40 40 41 40 42 43 43 43 41 40 41 44 47 49 48 44 44 41
42 24 39 42 44 28 19 15 19 15 15 17 12 14 19 25 29 33 33 37 39 40 40 39 40 42 43 43 43 43 43 43 43 43 41 40 40 41 43 43 44 42 35 39
47 43 37 33 37 37 46 36 15 15 15 24 24 30 27 26 29 30 37 37 38 39 40 41 42 43 43 41 41 41 41 41 41 40 39 38 37 37 37 37 37 37 37 38
Wind_Direction
37 33 31 36 43 48 47 48 46 50 33 19 9 346 320 314 307 296 294 291 290 288 295 293 294 295 294 296 292 289 281 282 270 274 274 267 263 262 262 265 261 264 267 269
35 30 37 47 45 47 47 45 41 55 37 46 23 358 333 326 321 310 299 296 293 290 292 299 297 293 294 292 292 289 287 287 279 276 279 275 272 270 265 266 263 261 266 264
33 35 41 45 40 43 45 38 36 46 48 48 32 335 310 308 317 322 317 309 302 296 293 296 296 296 293 291 289 289 287 287 289 293 278 272 277 283 268 271 268 267 264 267
34 38 38 40 39 40 37 36 39 49 57 43 48 344 298 287 298 314 316 313 308 303 300 298 297 295 294 294 291 289 289 288 287 286 283 283 277 275 283 288 273 271 265 265
33 35 36 35 37 42 40 39 43 50 60 62 73 87 301 291 283 300 310 312 311 308 304 300 299 299 297 297 293 290 288 289 288 287 286 282 279 280 283 281 275 287 261 250
37 45 42 38 43 45 35 48 47 51 64 63 75 110 62 331 288 292 302 309 310 308 305 303 302 300 298 298 296 293 289 287 289 288 286 284 282 281 279 281 280 282 283 272
32 37 42 40 39 45 36 40 37 42 48 55 83 97 49 32 309 305 302 308 313 312 310 307 305 301 300 298 297 295 292 288 289 285 283 283 283 283 281 280 278 279 282 283
24 28 35 39 40 37 37 42 41 36 41 59 72 97 76 27 341 315 314 314 313 313 312 311 309 305 302 300 299 298 295 292 290 288 285 283 282 282 281 282 281 278 278 282
24 31 41 43 44 43 39 41 60 57 56 75 77 84 78 88 111 307 310 311 313 314 314 314 313 310 308 305 303 302 299 296 294 291 288 285 285 282 280 280 281 280 280 282
33 30 41 42 47 47 47 54 52 59 50 49 68 98 106 76 147 224 270 295 304 308 314 317 318 317 316 314 311 310 306 302 300 296 293 289 287 286 283 281 280 282 279 280
33 37 35 43 39 42 46 50 59 70 5 31 55 53 83 86 126 221 234 270 290 297 304 311 313 316 317 316 316 317 317 314 310 305 301 297 293 289 287 284 284 280 283 279
33 38 31 38 49 54 53 54 58 59 63 351 7 80 82 97 131 148 186 260 288 301 311 314 319 315 321 324 322 320 318 314 311 312 313 310 307 301 296 292 293 290 285 290
37 35 29 36 45 53 50 55 59 66 71 56 358 360 66 96 123 153 186 205 203 212 317 339 335 327 322 322 323 324 326 322 329 331 326 322 319 317 311 306 305 304 296 296
34 35 35 33 34 39 41 46 60 66 59 61 34 304 308 109 95 98 104 145 135 112 91 66 36 49 313 314 322 325 328 331 334 337 342 337 333 330 329 321 316 310 310 312
28 27 33 36 31 33 35 39 53 65 73 61 35 333 286 112 193 153 112 154 154 127 109 48 47 46 36 14 342 342 342 342 345 350 354 350 345 348 345 338 331 324 321 317
22 22 22 28 38 40 37 43 52 70 128 205 211 240 259 332 42 68 79 113 75 71 104 36 6 349 357 354 350 349 355 356 358 358 358 3 5 6 11 3 349 335 325 322
18 23 18 31 32 27 42 54 71 66 69 94 70 87 10 337 9 56 81 131 151 56 15 40 20 6 4 359 25 25 17 2 11 11 9 13 357 8 8 22 11 344 331 326
7 12 20 25 27 32 42 54 58 72 65 129 116 144 96 2 1 76 105 107 102 70 59 59 52 33 36 36 29 31 27 15 14 17 24 1 16 16 25 11 21 302 327 3
358 13 10 23 23 25 37 53 59 60 61 112 146 156 141 31 332 345 92 86 59 51 47 55 51 45 46 46 42 39 32 16 24 28 17 11 18 59 28 41 20 287 331 8
354 358 6 14 14 21 33 47 62 60 64 83 120 138 134 110 106 2 3 59 77 44 48 59 51 48 53 84 89 70 56 14 18 7 29 51 55 60 35 24 31 151 145 142
350 354 359 12 12 22 49 49 59 49 57 76 104 123 121 121 132 80 52 38 63 74 78 70 76 85 117 120 130 126 125 115 158 154 98 51 38 41 46 28 162 164 171 176
334 351 352 357 8 7 69 43 38 42 62 75 98 128 141 139 129 137 142 137 122 121 133 146 148 147 136 159 154 145 139 150 148 145 139 135 133 132 138 145 148 159 168 326
307 317 329 2 3 356 133 15 79 36 54 72 87 131 151 150 151 144 147 155 163 164 164 162 159 159 159 157 152 141 147 148 143 132 124 130 134 128 130 110 113 317 331 345
301 303 310 317 334 265 237 212 244 10 173 75 93 107 144 162 161 158 154 156 160 162 160 160 160 160 161 156 157 159 151 150 151 148 149 150 143 131 119 100 85 62 58 51
297 304 299 296 300 311 285 236 223 219 215 207 186 170 162 166 172 169 166 167 167 167 165 162 166 169 169 162 158 156 155 151 148 149 151 153 153 144 126 110 96 68 28 51
281 292 290 278 296 306 309 314 287 268 247 219 211 206 197 184 183 176 180 175 171 171 169 170 173 176 172 163 161 156 153 149 150 149 145 141 135 128 119 105 86 69 68 53